STARLINK-34687 (64909 NORAD) Tracking and Keplerian Element Data

This shows tracking and keplerian element data for the satellite.

Feedback or suggestion? Click here.




ElementValue
Catalog64909
NameSTARLINK-34687
Epoch Orbit2379
Epoch Day353.75284246
Epoch Year2025
RAAN359.9083
Inclination53.1594
Eccentricity0.0002368
Argument of Perigee118.4171
Mean Anonmoly241.7073
Mean Motion15.39075861
Decay Rate-0.00045754
L11 64909U 25157F 25353.75284246 -.00045754 00000+0 -11612-2 0 9993
L22 64909 53.1594 359.9083 0002368 118.4171 241.7073 15.39075861 23796



Live tracking and technical data element details for STARLINK-34687 (NORAD 64909). STARLINK-34687 can be tracked NOW for your location showing map with azimuth and elevation plus other details from your city location.







IsCatalogInMostPopularTable: catalog: 64909, numindb: 3
Update: records affected: 1



GetName: 64909 STARLINK-34687

Hit Count: updated at: Sat, 07 Feb 2026 09:08:09 GMT